Location: Cruquius
(52.3348°N, 4.6319°E)
Time: 02:53:11
(UTC+00:00)

Meteor 1-27 Rocket - Pass Details

Date: 12 May 2021
Orbit: 830 x 910 km, 81.3° (Epoch: 14 June)

Event Time Altitude Azimuth Distance (km) Brightness Sun altitude
Exits shadow 21:52:08 15° 194° (SSW) 2,249 5.5 -15.7°
Maximum altitude 21:57:11 84° 283° (WNW) 915 3.9 -16.0°
Drops below altitude 10° 22:03:10 10° 12° (NNE) 2,607 7.1 -16.4°
Sets 22:05:39 0° 13° (NNE) 3,555 7.9 -16.5°
